Location: Holiday Acres Laynes 2 Mobile Home Park
(26.7249°N, 81.8671°W)
Time: 12:49:20
(UTC+00:00)

Cosmos 1818 - Pass Details

Date: 25 November 2020
Orbit: 774 x 800 km, 65.0° (Epoch: 23 January)

Event Time Altitude Azimuth Distance (km) Brightness Sun altitude
Rises 23:09:21 0° 339° (NNW) 3,305 6.8 -8.1°
Reaches altitude 10° 23:11:49 10° 343° (NNW) 2,372 6.0 -8.6°
Maximum altitude 23:17:12 59° 63° (ENE) 916 3.6 -9.8°
Drops below altitude 10° 23:22:33 10° 142° (SE) 2,356 5.8 -10.9°
Sets 23:25:00 0° 146° (SE) 3,280 6.6 -11.4°
